2021 TN6
ephemeris date magn radius delta ra dec elong phase
Today20 Oct 202529.62.176 AU2.132 AU19h08m-24°54'79.1°26.7°
2021 TN6 - 2025-10-20
astro.vanbuitenen.nl


 
-1 year
-1 month
-1 day
Now
+1 day
+1 month
+1 year

The interactive orbit chart above shows the body's path through the solar system and its position at the given date. Green and blue lines are shown perpendicular to the ecliptic plane: Green if the path is above the ecliptic plane, blue if it is below. (Left-click and drag to rotate the view; Right-click and drag to move the view; Use scroll wheel to zoom in our out.)

The orbital elements of 2021 TN6 are:

            e (Eccentricity)                : 0.6368786
            a (Semimajor axis)              : 1.3309285
            i (Inclination)                 : 2.42549
            Ω (Longitude of ascending node) : 56.97528
            ω (Argument of perihelion)      : 73.07157
            M (Mean anomaly)                : 80.10862
            Epoch                           : 2025 May 05

            L (Longitude of perihelion)     : 130.03254
            B (Latitude of perihelion)      : 2.32033
            P (Orbital period in years)     : 1.54            
        

The light curve chart below shows the estimated development of the minor planet's magnitude.


The all-sky chart below shows the path of the minor planet over the same period as the light curve. The current position is marked yellow.





The following chart shows the path of the minor planet in the next few days. The field of view is optimized for (~10x50) binoculars and finderscopes.




Ephemerides:
Date       Time       RA (2000)    DEC (2000)    delta   radius  elong  phase   PA    magn
2025-10-20 00:00 UT   19 08 51.9   -24 54 24     2.132    2.176   79.1   26.7    84   29.6 
2025-10-20 20:42 UT   19 09 50.4   -24 52 07     2.143    2.175   78.5   26.6    84   29.6 
2025-10-21 00:00 UT   19 09 59.8   -24 51 45     2.145    2.175   78.4   26.6    84   29.6 
2025-10-22 00:00 UT   19 11 08.7   -24 49 03     2.158    2.174   77.6   26.6    84   29.6 
2025-10-23 00:00 UT   19 12 18.5   -24 46 19     2.171    2.174   76.9   26.5    83   29.6 
2025-10-24 00:00 UT   19 13 29.2   -24 43 31     2.184    2.173   76.2   26.4    83   29.6 
2025-10-25 00:00 UT   19 14 40.9   -24 40 40     2.197    2.173   75.5   26.3    83   29.6 
2025-10-26 00:00 UT   19 15 53.4   -24 37 47     2.210    2.172   74.7   26.2    83   29.7 
2025-10-27 00:00 UT   19 17 06.8   -24 34 50     2.223    2.171   74.0   26.1    83   29.7 
2025-10-28 00:00 UT   19 18 21.1   -24 31 50     2.236    2.170   73.3   26.0    83   29.7 
2025-10-29 00:00 UT   19 19 36.2   -24 28 47     2.248    2.169   72.6   25.9    83   29.7 
2025-10-30 00:00 UT   19 20 52.1   -24 25 41     2.261    2.169   71.9   25.8    83   29.7 
2025-10-31 00:00 UT   19 22 08.9   -24 22 32     2.273    2.168   71.2   25.7    83   29.7 
2025-11-01 00:00 UT   19 23 26.4   -24 19 19     2.286    2.167   70.5   25.6    83   29.7 
2025-11-02 00:00 UT   19 24 44.6   -24 16 03     2.298    2.166   69.8   25.5    83   29.7 
2025-11-03 00:00 UT   19 26 03.6   -24 12 44     2.310    2.165   69.1   25.4    82   29.7 
2025-11-04 00:00 UT   19 27 23.4   -24 09 21     2.322    2.164   68.4   25.2    82   29.7 
2025-11-05 00:00 UT   19 28 43.9   -24 05 55     2.334    2.163   67.7   25.1    82   29.7 
2025-11-06 00:00 UT   19 30 05.0   -24 02 25     2.346    2.161   67.0   25.0    82   29.7 
2025-11-07 00:00 UT   19 31 26.9   -23 58 52     2.358    2.160   66.4   24.9    82   29.7 
2025-11-08 00:00 UT   19 32 49.4   -23 55 15     2.369    2.159   65.7   24.7    82   29.7 
2025-11-09 00:00 UT   19 34 12.6   -23 51 34     2.381    2.158   65.0   24.6    82   29.8 
2025-11-10 00:00 UT   19 35 36.4   -23 47 50     2.392    2.156   64.3   24.4    82   29.8 
2025-11-11 00:00 UT   19 37 00.9   -23 44 02     2.404    2.155   63.6   24.3    82   29.8 
2025-11-12 00:00 UT   19 38 26.0   -23 40 11     2.415    2.154   63.0   24.2    82   29.8 
2025-11-13 00:00 UT   19 39 51.7   -23 36 15     2.426    2.152   62.3   24.0    81   29.8 
2025-11-14 00:00 UT   19 41 18.1   -23 32 16     2.437    2.151   61.6   23.9    81   29.8 
2025-11-15 00:00 UT   19 42 45.0   -23 28 12     2.448    2.149   61.0   23.7    81   29.8 
2025-11-16 00:00 UT   19 44 12.6   -23 24 05     2.459    2.148   60.3   23.6    81   29.8 


    Terminology:
            
    delta:  distance between minor planet and earth in AU
    radius: distance between minor planet and sun in AU
    magn:   magnitude (brightness) estimate    
    ra:     right ascension in hours (24h = 360deg)
    dec:    declination in degrees
    elong:  elongation in degrees (angle sun-earth-minor planet)    
    phase:  phase angle in degrees (angle sun-minor planet-earth)        
    AU:     Astronomical Unit (mean distance between earth and sun: 149597870.7 km
    

Orbital elements provided by the MPC (Minor Planet Center).
Calculations by a modified version of AAPlus, a C# implementation of the AA+ project by PJ Naughter from the algorithms presented in the book "Astronomical Algorithms" by Jean Meeus.
NGC2000 dso catalog and star labels from VizieR as provided by the Strasbourg astronomical Data Center.
Tycho2 catalog from the ESO archive.